"Period start","avg(HW err(1)/warn(2) (#))","avg(Visibility (m))","avg(Weather code (#))","avg(Precip intensity (mm/h))","min(HW err(1)/warn(2) (#))","max(HW err(1)/warn(2) (#))","std(HW err(1)/warn(2) (#))","med(HW err(1)/warn(2) (#))","min(Visibility (m))","max(Visibility (m))","std(Visibility (m))","med(Visibility (m))","min(Weather code (#))","max(Weather code (#))","std(Weather code (#))","med(Weather code (#))","min(Precip intensity (mm/h))","max(Precip intensity (mm/h))","std(Precip intensity (mm/h))","med(Precip intensity (mm/h))"
2013-09-06 00:00:00,2,48862,0,0.00,2,2,0,2,44871,50000,1837,50000,0,0,0,0,0.00,0.00,0.00,0.00
2013-09-06 00:10:00,2,46500,0,0.00,2,2,0,2,41506,50000,3534,47733,0,0,0,0,0.00,0.00,0.00,0.00
2013-09-06 00:20:00,2,45693,0,0.00,2,2,0,2,36562,50000,5525,49310,0,0,0,0,0.00,0.00,0.00,0.00
2013-09-06 00:30:00,2,46447,0,0.00,2,2,0,2,36292,50000,4723,48952,0,0,0,0,0.00,0.00,0.00,0.00
2013-09-06 00:40:00,2,48566,0,0.00,2,2,0,2,44835,50000,2011,50000,0,0,0,0,0.00,0.00,0.00,0.00
2013-09-06 00:50:00,2,49728,0,0.00,2,2,0,2,47513,50000,742,50000,0,0,0,0,0.00,0.00,0.00,0.00
2013-09-06 01:00:00,2,48513,0,0.00,2,2,0,2,37744,50000,3673,50000,0,0,0,0,0.00,0.00,0.00,0.00
2013-09-06 01:10:00,2,48540,0,0.00,2,2,0,2,42637,50000,2920,50000,0,0,0,0,0.00,0.00,0.00,0.00
2013-09-06 01:20:00,2,47789,0,0.00,2,2,0,2,38098,50000,3432,48733,0,0,0,0,0.00,0.00,0.00,0.00
2013-09-06 01:30:00,2,46033,0,0.00,2,2,0,2,38064,50000,3849,47116,0,0,0,0,0.00,0.00,0.00,0.00
2013-09-06 01:40:00,2,45373,0,0.00,2,2,0,2,36289,50000,4852,46733,0,0,0,0,0.00,0.00,0.00,0.00
2013-09-06 01:50:00,2,46865,0,0.00,2,2,0,2,37049,50000,3937,47985,0,0,0,0,0.00,0.00,0.00,0.00
2013-09-06 02:00:00,2,44768,0,0.00,2,2,0,2,35136,50000,4342,43842,0,0,0,0,0.00,0.00,0.00,0.00
2013-09-06 02:10:00,2,40833,0,0.00,2,2,0,2,32637,50000,6282,38680,0,0,0,0,0.00,0.00,0.00,0.00
2013-09-06 02:20:00,2,45841,0,0.00,2,2,0,2,39193,50000,3809,45404,0,0,0,0,0.00,0.00,0.00,0.00
2013-09-06 02:30:00,2,46576,0,0.00,2,2,0,2,41053,50000,3414,47020,0,0,0,0,0.00,0.00,0.00,0.00
2013-09-06 02:40:00,2,45502,0,0.00,2,2,0,2,33430,50000,4882,47309,0,0,0,0,0.00,0.00,0.00,0.00
2013-09-06 02:50:00,2,49343,0,0.00,2,2,0,2,46548,50000,1128,50000,0,0,0,0,0.00,0.00,0.00,0.00
2013-09-06 03:00:00,2,44254,0,0.00,2,2,0,2,33847,50000,5499,45528,0,0,0,0,0.00,0.00,0.00,0.00
2013-09-06 03:10:00,2,46308,0,0.00,2,2,0,2,34321,50000,4531,47976,0,0,0,0,0.00,0.00,0.00,0.00
2013-09-06 03:20:00,2,47278,0,0.00,2,2,0,2,40453,50000,3740,49432,0,0,0,0,0.00,0.00,0.00,0.00
2013-09-06 03:30:00,2,45647,0,0.00,2,2,0,2,35960,50000,3982,45766,0,0,0,0,0.00,0.00,0.00,0.00
2013-09-06 03:40:00,2,47618,0,0.00,2,2,0,2,37604,50000,4121,50000,0,0,0,0,0.00,0.00,0.00,0.00
2013-09-06 03:50:00,2,44378,0,0.00,2,2,0,2,36630,50000,4710,44824,0,0,0,0,0.00,0.00,0.00,0.00
2013-09-06 04:00:00,2,49920,0,0.00,2,2,0,2,49438,50000,176,50000,0,0,0,0,0.00,0.00,0.00,0.00
2013-09-06 04:10:00,2,48256,0,0.00,2,2,0,2,44185,50000,2003,49376,0,0,0,0,0.00,0.00,0.00,0.00
2013-09-06 04:20:00,2,46220,0,0.00,2,2,0,2,40423,50000,3152,46193,0,0,0,0,0.00,0.00,0.00,0.00
2013-09-06 04:30:00,2,47821,0,0.00,2,2,0,2,42312,50000,3029,50000,0,0,0,0,0.00,0.00,0.00,0.00
2013-09-06 04:40:00,2,44157,0,0.00,2,2,0,2,30885,50000,5776,44973,0,0,0,0,0.00,0.00,0.00,0.00
2013-09-06 04:50:00,2,47416,0,0.00,2,2,0,2,35772,50000,4414,50000,0,0,0,0,0.00,0.00,0.00,0.00
2013-09-06 05:00:00,2,43280,0,0.00,2,2,0,2,32509,50000,5393,42284,0,0,0,0,0.00,0.00,0.00,0.00
2013-09-06 05:10:00,2,49323,0,0.00,2,2,0,2,45002,50000,1534,50000,0,0,0,0,0.00,0.00,0.00,0.00
2013-09-06 05:20:00,2,49296,0,0.00,2,2,0,2,46505,50000,1164,50000,0,0,0,0,0.00,0.00,0.00,0.00
2013-09-06 05:30:00,2,49398,0,0.00,2,2,0,2,45277,50000,1427,50000,0,0,0,0,0.00,0.00,0.00,0.00
2013-09-06 05:40:00,2,47309,0,0.00,2,2,0,2,41126,50000,3330,49530,0,0,0,0,0.00,0.00,0.00,0.00
2013-09-06 05:50:00,2,48774,0,0.00,2,2,0,2,42504,50000,2299,50000,0,0,0,0,0.00,0.00,0.00,0.00
2013-09-06 06:00:00,2,49612,0,0.00,2,2,0,2,47887,50000,714,50000,0,0,0,0,0.00,0.00,0.00,0.00
2013-09-06 06:10:00,2,45744,0,0.00,2,2,0,2,38114,50000,4027,45792,0,0,0,0,0.00,0.00,0.00,0.00
2013-09-06 06:20:00,2,49383,0,0.00,2,2,0,2,46126,50000,1183,50000,0,0,0,0,0.00,0.00,0.00,0.00
2013-09-06 06:30:00,2,49815,0,0.00,2,2,0,2,48148,50000,556,50000,0,0,0,0,0.00,0.00,0.00,0.00
2013-09-06 06:40:00,2,47873,0,0.00,2,2,0,2,42597,50000,2729,49797,0,0,0,0,0.00,0.00,0.00,0.00
2013-09-06 06:50:00,2,49524,0,0.00,2,2,0,2,46529,50000,1070,50000,0,0,0,0,0.00,0.00,0.00,0.00
2013-09-06 07:00:00,2,48597,0,0.00,2,2,0,2,45286,50000,2023,50000,0,0,0,0,0.00,0.00,0.00,0.00
2013-09-06 07:10:00,2,49913,0,0.00,2,2,0,2,49240,50000,227,50000,0,0,0,0,0.00,0.00,0.00,0.00
2013-09-06 07:20:00,2,48269,0,0.00,2,2,0,2,43918,50000,2253,49628,0,0,0,0,0.00,0.00,0.00,0.00
2013-09-06 07:30:00,2,49174,0,0.00,2,2,0,2,45747,50000,1437,50000,0,0,0,0,0.00,0.00,0.00,0.00
2013-09-06 07:40:00,2,47972,0,0.00,2,2,0,2,40844,50000,2787,49295,0,0,0,0,0.00,0.00,0.00,0.00
2013-09-06 07:50:00,2,46487,0,0.00,2,2,0,2,40136,50000,3328,47712,0,0,0,0,0.00,0.00,0.00,0.00
2013-09-06 08:00:00,2,49334,0,0.00,2,2,0,2,45951,50000,1240,50000,0,0,0,0,0.00,0.00,0.00,0.00
2013-09-06 08:10:00,2,49265,0,0.00,2,2,0,2,46392,50000,1175,50000,0,0,0,0,0.00,0.00,0.00,0.00
2013-09-06 08:20:00,2,49133,0,0.00,2,2,0,2,43761,50000,1861,50000,0,0,0,0,0.00,0.00,0.00,0.00
2013-09-06 08:30:00,2,49714,0,0.00,2,2,0,2,48435,50000,575,50000,0,0,0,0,0.00,0.00,0.00,0.00
2013-09-06 08:40:00,2,49584,0,0.00,2,2,0,2,48676,50000,502,49924,0,0,0,0,0.00,0.00,0.00,0.00
2013-09-06 08:50:00,2,49461,0,0.00,2,2,0,2,46191,50000,1138,50000,0,0,0,0,0.00,0.00,0.00,0.00
2013-09-06 09:00:00,2,48227,0,0.00,2,2,0,2,36959,50000,3968,50000,0,0,0,0,0.00,0.00,0.00,0.00
2013-09-06 09:10:00,2,49843,0,0.00,2,2,0,2,48432,50000,470,50000,0,0,0,0,0.00,0.00,0.00,0.00
2013-09-06 09:20:00,2,49999,0,0.00,2,2,0,2,49990,50000,3,50000,0,0,0,0,0.00,0.00,0.00,0.00
2013-09-06 09:30:00,2,50000,0,0.00,2,2,0,2,50000,50000,0,50000,0,0,0,0,0.00,0.00,0.00,0.00
2013-09-06 09:40:00,2,50000,0,0.00,2,2,0,2,50000,50000,0,50000,0,0,0,0,0.00,0.00,0.00,0.00
2013-09-06 09:50:00,2,49994,0,0.00,2,2,0,2,49935,50000,20,50000,0,0,0,0,0.00,0.00,0.00,0.00
2013-09-06 10:00:00,2,50000,0,0.00,2,2,0,2,50000,50000,0,50000,0,0,0,0,0.00,0.00,0.00,0.00
2013-09-06 10:10:00,2,50000,0,0.00,2,2,0,2,50000,50000,0,50000,0,0,0,0,0.00,0.00,0.00,0.00
2013-09-06 10:20:00,2,50000,0,0.00,2,2,0,2,50000,50000,0,50000,0,0,0,0,0.00,0.00,0.00,0.00
2013-09-06 10:30:00,2,50000,0,0.00,2,2,0,2,50000,50000,0,50000,0,0,0,0,0.00,0.00,0.00,0.00
2013-09-06 10:40:00,2,50000,0,0.00,2,2,0,2,50000,50000,0,50000,0,0,0,0,0.00,0.00,0.00,0.00
2013-09-06 10:50:00,2,50000,0,0.00,2,2,0,2,50000,50000,0,50000,0,0,0,0,0.00,0.00,0.00,0.00
2013-09-06 11:00:00,2,50000,0,0.00,2,2,0,2,50000,50000,0,50000,0,0,0,0,0.00,0.00,0.00,0.00
2013-09-06 11:10:00,2,50000,0,0.00,2,2,0,2,50000,50000,0,50000,0,0,0,0,0.00,0.00,0.00,0.00
2013-09-06 11:20:00,2,50000,0,0.00,2,2,0,2,50000,50000,0,50000,0,0,0,0,0.00,0.00,0.00,0.00
2013-09-06 11:30:00,2,50000,0,0.00,2,2,0,2,50000,50000,0,50000,0,0,0,0,0.00,0.00,0.00,0.00
2013-09-06 11:40:00,2,50000,0,0.00,2,2,0,2,50000,50000,0,50000,0,0,0,0,0.00,0.00,0.00,0.00
2013-09-06 11:50:00,2,50000,0,0.00,2,2,0,2,50000,50000,0,50000,0,0,0,0,0.00,0.00,0.00,0.00
2013-09-06 12:00:00,2,50000,0,0.00,2,2,0,2,50000,50000,0,50000,0,0,0,0,0.00,0.00,0.00,0.00
2013-09-06 12:10:00,2,50000,0,0.00,2,2,0,2,50000,50000,0,50000,0,0,0,0,0.00,0.00,0.00,0.00
2013-09-06 12:20:00,2,50000,0,0.00,2,2,0,2,50000,50000,0,50000,0,0,0,0,0.00,0.00,0.00,0.00
2013-09-06 12:30:00,2,50000,0,0.00,2,2,0,2,50000,50000,0,50000,0,0,0,0,0.00,0.00,0.00,0.00
2013-09-06 12:40:00,2,50000,0,0.00,2,2,0,2,50000,50000,0,50000,0,0,0,0,0.00,0.00,0.00,0.00
2013-09-06 12:50:00,2,50000,0,0.00,2,2,0,2,50000,50000,0,50000,0,0,0,0,0.00,0.00,0.00,0.00
2013-09-06 13:00:00,2,50000,0,0.00,2,2,0,2,50000,50000,0,50000,0,0,0,0,0.00,0.00,0.00,0.00
2013-09-06 13:10:00,2,50000,0,0.00,2,2,0,2,50000,50000,0,50000,0,0,0,0,0.00,0.00,0.00,0.00
2013-09-06 13:20:00,2,50000,0,0.00,2,2,0,2,50000,50000,0,50000,0,0,0,0,0.00,0.00,0.00,0.00
2013-09-06 13:30:00,2,50000,0,0.00,2,2,0,2,50000,50000,0,50000,0,0,0,0,0.00,0.00,0.00,0.00
2013-09-06 13:40:00,2,50000,0,0.00,2,2,0,2,50000,50000,0,50000,0,0,0,0,0.00,0.00,0.00,0.00
2013-09-06 13:50:00,2,50000,0,0.00,2,2,0,2,50000,50000,0,50000,0,0,0,0,0.00,0.00,0.00,0.00
2013-09-06 14:00:00,2,50000,0,0.00,2,2,0,2,50000,50000,0,50000,0,0,0,0,0.00,0.00,0.00,0.00
2013-09-06 14:10:00,2,50000,0,0.00,2,2,0,2,50000,50000,0,50000,0,0,0,0,0.00,0.00,0.00,0.00
2013-09-06 14:20:00,2,50000,0,0.00,2,2,0,2,50000,50000,0,50000,0,0,0,0,0.00,0.00,0.00,0.00
2013-09-06 14:30:00,2,50000,0,0.00,2,2,0,2,50000,50000,0,50000,0,0,0,0,0.00,0.00,0.00,0.00
2013-09-06 14:40:00,2,50000,0,0.00,2,2,0,2,50000,50000,0,50000,0,0,0,0,0.00,0.00,0.00,0.00
2013-09-06 14:50:00,2,50000,0,0.00,2,2,0,2,50000,50000,0,50000,0,0,0,0,0.00,0.00,0.00,0.00
2013-09-06 15:00:00,2,50000,0,0.00,2,2,0,2,50000,50000,0,50000,0,0,0,0,0.00,0.00,0.00,0.00
2013-09-06 15:10:00,2,50000,0,0.00,2,2,0,2,50000,50000,0,50000,0,0,0,0,0.00,0.00,0.00,0.00
2013-09-06 15:20:00,2,50000,0,0.00,2,2,0,2,50000,50000,0,50000,0,0,0,0,0.00,0.00,0.00,0.00
2013-09-06 15:30:00,2,49985,0,0.00,2,2,0,2,49849,50000,45,50000,0,0,0,0,0.00,0.00,0.00,0.00
2013-09-06 15:40:00,2,50000,0,0.00,2,2,0,2,50000,50000,0,50000,0,0,0,0,0.00,0.00,0.00,0.00
2013-09-06 15:50:00,2,50000,0,0.00,2,2,0,2,50000,50000,0,50000,0,0,0,0,0.00,0.00,0.00,0.00
2013-09-06 16:00:00,2,50000,0,0.00,2,2,0,2,50000,50000,0,50000,0,0,0,0,0.00,0.00,0.00,0.00
2013-09-06 16:10:00,2,50000,0,0.00,2,2,0,2,50000,50000,0,50000,0,0,0,0,0.00,0.00,0.00,0.00
2013-09-06 16:20:00,2,50000,0,0.00,2,2,0,2,50000,50000,0,50000,0,0,0,0,0.00,0.00,0.00,0.00
2013-09-06 16:30:00,2,50000,0,0.00,2,2,0,2,50000,50000,0,50000,0,0,0,0,0.00,0.00,0.00,0.00
2013-09-06 16:40:00,2,50000,0,0.00,2,2,0,2,50000,50000,0,50000,0,0,0,0,0.00,0.00,0.00,0.00
2013-09-06 16:50:00,2,50000,0,0.00,2,2,0,2,50000,50000,0,50000,0,0,0,0,0.00,0.00,0.00,0.00
2013-09-06 17:00:00,2,50000,0,0.00,2,2,0,2,50000,50000,0,50000,0,0,0,0,0.00,0.00,0.00,0.00
2013-09-06 17:10:00,2,50000,0,0.00,2,2,0,2,50000,50000,0,50000,0,0,0,0,0.00,0.00,0.00,0.00
2013-09-06 17:20:00,2,50000,0,0.00,2,2,0,2,50000,50000,0,50000,0,0,0,0,0.00,0.00,0.00,0.00
2013-09-06 17:30:00,2,50000,0,0.00,2,2,0,2,50000,50000,0,50000,0,0,0,0,0.00,0.00,0.00,0.00
2013-09-06 17:40:00,2,50000,0,0.00,2,2,0,2,50000,50000,0,50000,0,0,0,0,0.00,0.00,0.00,0.00
2013-09-06 17:50:00,2,50000,0,0.00,2,2,0,2,50000,50000,0,50000,0,0,0,0,0.00,0.00,0.00,0.00
2013-09-06 18:00:00,2,50000,0,0.00,2,2,0,2,50000,50000,0,50000,0,0,0,0,0.00,0.00,0.00,0.00
2013-09-06 18:10:00,2,50000,0,0.00,2,2,0,2,50000,50000,0,50000,0,0,0,0,0.00,0.00,0.00,0.00
2013-09-06 18:20:00,2,50000,0,0.00,2,2,0,2,50000,50000,0,50000,0,0,0,0,0.00,0.00,0.00,0.00
2013-09-06 18:30:00,2,50000,0,0.00,2,2,0,2,50000,50000,0,50000,0,0,0,0,0.00,0.00,0.00,0.00
2013-09-06 18:40:00,2,50000,0,0.00,2,2,0,2,50000,50000,0,50000,0,0,0,0,0.00,0.00,0.00,0.00
2013-09-06 18:50:00,2,50000,0,0.00,2,2,0,2,50000,50000,0,50000,0,0,0,0,0.00,0.00,0.00,0.00
2013-09-06 19:00:00,2,50000,0,0.00,2,2,0,2,50000,50000,0,50000,0,0,0,0,0.00,0.00,0.00,0.00
2013-09-06 19:10:00,2,50000,0,0.00,2,2,0,2,50000,50000,0,50000,0,0,0,0,0.00,0.00,0.00,0.00
2013-09-06 19:20:00,2,50000,0,0.00,2,2,0,2,50000,50000,0,50000,0,0,0,0,0.00,0.00,0.00,0.00
2013-09-06 19:30:00,2,50000,0,0.00,0,2,1,2,50000,50000,0,50000,0,0,0,0,0.00,0.00,0.00,0.00
2013-09-06 19:40:00,1,50000,0,0.00,0,2,1,0,50000,50000,0,50000,0,0,0,0,0.00,0.00,0.00,0.00
2013-09-06 19:50:00,2,49969,0,0.00,2,2,0,2,49687,50000,94,50000,0,0,0,0,0.00,0.00,0.00,0.00
2013-09-06 20:00:00,2,50000,0,0.00,2,2,0,2,50000,50000,0,50000,0,0,0,0,0.00,0.00,0.00,0.00
2013-09-06 20:10:00,2,50000,0,0.00,2,2,0,2,50000,50000,0,50000,0,0,0,0,0.00,0.00,0.00,0.00
2013-09-06 20:20:00,2,49946,0,0.00,2,2,0,2,49456,50000,163,50000,0,0,0,0,0.00,0.00,0.00,0.00
2013-09-06 20:30:00,2,50000,0,0.00,2,2,0,2,50000,50000,0,50000,0,0,0,0,0.00,0.00,0.00,0.00
2013-09-06 20:40:00,2,50000,0,0.00,2,2,0,2,50000,50000,0,50000,0,0,0,0,0.00,0.00,0.00,0.00
2013-09-06 20:50:00,2,49976,0,0.00,2,2,0,2,49761,50000,72,50000,0,0,0,0,0.00,0.00,0.00,0.00
2013-09-06 21:00:00,2,50000,0,0.00,2,2,0,2,50000,50000,0,50000,0,0,0,0,0.00,0.00,0.00,0.00
2013-09-06 21:10:00,2,50000,0,0.00,2,2,0,2,50000,50000,0,50000,0,0,0,0,0.00,0.00,0.00,0.00
2013-09-06 21:20:00,2,49502,0,0.00,2,2,0,2,45553,50000,1321,50000,0,0,0,0,0.00,0.00,0.00,0.00
2013-09-06 21:30:00,2,50000,0,0.00,2,2,0,2,50000,50000,0,50000,0,0,0,0,0.00,0.00,0.00,0.00
2013-09-06 21:40:00,2,50000,0,0.00,2,2,0,2,50000,50000,0,50000,0,0,0,0,0.00,0.00,0.00,0.00
2013-09-06 21:50:00,2,49789,0,0.00,2,2,0,2,47892,50000,632,50000,0,0,0,0,0.00,0.00,0.00,0.00
2013-09-06 22:00:00,2,50000,0,0.00,2,2,0,2,50000,50000,0,50000,0,0,0,0,0.00,0.00,0.00,0.00
2013-09-06 22:10:00,2,48736,0,0.00,2,2,0,2,42543,50000,2579,50000,0,0,0,0,0.00,0.00,0.00,0.00
2013-09-06 22:20:00,2,46628,0,0.00,2,2,0,2,40854,50000,3228,47336,0,0,0,0,0.00,0.00,0.00,0.00
2013-09-06 22:30:00,2,47498,0,0.00,2,2,0,2,41029,50000,2938,48780,0,0,0,0,0.00,0.00,0.00,0.00
2013-09-06 22:40:00,2,49494,0,0.00,2,2,0,2,46980,50000,1035,50000,0,0,0,0,0.00,0.00,0.00,0.00
2013-09-06 22:50:00,2,46835,0,0.00,2,2,0,2,41341,50000,2981,46640,0,0,0,0,0.00,0.00,0.00,0.00
2013-09-06 23:00:00,2,48284,0,0.00,2,2,0,2,41533,50000,2649,49856,0,0,0,0,0.00,0.00,0.00,0.00
2013-09-06 23:10:00,2,48699,0,0.00,2,2,0,2,42153,50000,2464,50000,0,0,0,0,0.00,0.00,0.00,0.00
2013-09-06 23:20:00,2,49412,0,0.00,2,2,0,2,44125,50000,1762,50000,0,0,0,0,0.00,0.00,0.00,0.00
2013-09-06 23:30:00,2,49770,0,0.00,2,2,0,2,47696,50000,691,50000,0,0,0,0,0.00,0.00,0.00,0.00
2013-09-06 23:40:00,2,49882,0,0.00,2,2,0,2,48876,50000,336,50000,0,0,0,0,0.00,0.00,0.00,0.00
2013-09-06 23:50:00,2,47538,0,0.00,2,2,0,2,43009,50000,2584,48425,0,0,0,0,0.00,0.00,0.00,0.00
